Printer-friendly version

IAU Minor Planet Center

Minor Planet Center

MPEC 2007-P47 : 2007 PR10

The following Minor Planet Electronic Circular may be linked-to from your own Web pages, but must not otherwise be redistributed electronically.


Read MPEC 2007-P46 Read MPEC 2007-P48


M.P.E.C. 2007-P47                                Issued 2007 Aug. 13, 16:24 UT

     The Minor Planet Electronic Circulars contain information on unusual
         minor planets and routine data on comets.  They are published
   on behalf of Commission 20 of the International Astronomical Union by the
          Minor Planet Center, Smithsonian Astrophysical Observatory,
                          Cambridge, MA 02138, U.S.A.

             Prepared using the Tamkin Foundation Computer Network

                              MPC@CFA.HARVARD.EDU
          URL http://www.cfa.harvard.edu/iau/mpc.html  ISSN 1523-6714

                                   2007 PR10

Observations:
     K07P10R* C2007 08 12.55073 22 30 26.20 -44 14 48.0          19.1 V EP047E12
     K07P10R  C2007 08 12.57234 22 30 02.19 -44 13 56.6          19.1 V EP047E12
     K07P10R  C2007 08 12.58329 22 29 50.02 -44 13 30.1          19.0 V EP047E12
     K07P10R  C2007 08 12.63796 22 28 49.65 -44 11 16.6          18.9 V EP047E12
     K07P10R  C2007 08 12.63850 22 28 49.04 -44 11 15.7          18.5 V EP047E12
     K07P10R  C2007 08 12.63903 22 28 48.57 -44 11 14.1          18.9 V EP047E12
     K07P10R  C2007 08 12.67429 22 28 09.84 -44 09 45.3          19.5 V EP047E12
     K07P10R  C2007 08 12.67591 22 28 08.04 -44 09 40.3          19.1 V EP047E12
     K07P10R  C2007 08 12.67645 22 28 07.42 -44 09 40.2          19.7 V EP047E12
     K07P10R  C2007 08 12.69129 22 27 51.15 -44 09 02.0          19.5 V EP047E12
     K07P10R  C2007 08 12.70689 22 27 34.12 -44 08 22.7          19.3 V EP047E12
     K07P10R  C2007 08 12.72318 22 27 16.34 -44 07 39.9          19.5 V EP047E12
     K07P10R  C2007 08 12.75088 22 26 46.39 -44 06 27.6          19.4 V EP047E12
     K07P10R  C2007 08 13.61106 22 12 16.09 -43 27 58.8          19.5 V EP047E12
     K07P10R  C2007 08 13.61984 22 12 07.38 -43 27 34.0          20.0 V EP047E12
     K07P10R  C2007 08 13.64826 22 11 38.96 -43 26 05.1          18.3 R EP047474
     K07P10R  C2007 08 13.65012 22 11 37.24 -43 25 57.6          18.6 R EP047474
     K07P10R  C2007 08 13.65347 22 11 33.99 -43 25 47.1          18.8 R EP047474
     K07P10R  C2007 08 13.65475 22 11 32.70 -43 25 44.8          18.8 R EP047474
     K07P10R  C2007 08 13.65602 22 11 31.37 -43 25 40.3                 EP047474

Observer details:
474 Mount John Observatory, Lake Tekapo.  Observer A. C. Gilmore.  1.0-m f/7.7
    reflector + CCD.
E12 Siding Spring Survey.  Observer G. J. Garradd.  Measurers E. C. Beshore,
    A. Boattini, G. J. Garradd, A. R. Gibbs, A. D. Grauer, R. E. Hill,
    R. A. Kowalski, S. M. Larson, R. H. McNaught.  0.5-m Uppsala Schmidt + CCD.

Orbital elements:
2007 PR10                                                Earth MOID = 0.1365 AU
Epoch 2007 Oct. 27.0 TT = JDT 2454400.5                 MPC
M  86.61463              (2000.0)            P               Q
n   0.67892873     Peri.  190.74803     -0.96288511     -0.21929645
a   1.2820942      Node   334.83627     +0.26685949     -0.68604858
e   0.9015763      Incl.   21.72011     +0.04047562     -0.69371926
P   1.45           H   20.7           G   0.15           U   9
Residuals in seconds of arc
070812 E12  0.4+  0.4+    070812 E12  0.5+  0.9+    070813 E12  0.7-  0.2+
070812 E12  0.0   0.2+    070812 E12  0.1+  0.4-    070813 474  0.2-  1.9-
070812 E12  0.5-  0.4+    070812 E12  0.2-  0.0     070813 474  0.7+  0.3+
070812 E12  0.3-  0.1-    070812 E12  0.2-  0.7-    070813 474  0.7+  1.0+
070812 E12  0.5-  0.5-    070812 E12  0.8-  0.1-    070813 474  0.1+  0.4-
070812 E12  0.7+  0.3-    070812 E12  0.1+  0.1-    070813 474  1.0-  0.4+
070812 E12  0.7+  0.0     070813 E12  0.5+  0.3+

Ephemeris:
2007 PR10                a,e,i = 1.28, 0.90, 22                  q = 0.1262
Date    TT    R. A. (2000) Decl.     Delta      r     Elong.  Phase     V
2007 08 08    00 15.29   -44 55.2    0.196    1.154   131.9    40.9    19.1
2007 08 10    23 24.08   -45 22.6    0.211    1.184   140.2    33.2    19.1
2007 08 12    22 40.79   -44 35.9    0.231    1.213   146.5    27.5    19.2
2007 08 14    22 06.19   -43 09.2    0.255    1.242   150.5    23.7    19.3
2007 08 16    21 39.19   -41 27.3    0.282    1.270   152.5    21.6    19.5
2007 08 18    21 18.20   -39 43.9    0.311    1.297   152.8    20.9    19.8
2007 08 20    21 01.81   -38 06.0    0.342    1.324   152.0    21.1    20.0
2007 08 22    20 48.88   -36 36.0    0.375    1.350   150.4    21.7    20.3
2007 08 24    20 38.59   -35 14.6    0.408    1.376   148.4    22.7    20.5
2007 08 26    20 30.34   -34 01.4    0.443    1.401   146.2    23.7    20.8
2007 08 28    20 23.67   -32 55.6    0.479    1.426   144.0    24.6    21.0
2007 08 30    20 18.26   -31 56.5    0.515    1.450   141.7    25.6    21.2
2007 09 01    20 13.87   -31 03.3    0.553    1.474   139.4    26.5    21.5
2007 09 03    20 10.31   -30 15.0    0.590    1.497   137.2    27.3    21.7
2007 09 05    20 07.43   -29 31.2    0.629    1.520   135.0    28.0    21.8
2007 09 07    20 05.14   -28 51.1    0.668    1.542   132.9    28.6    22.0

Timothy B. Spahr             (C) Copyright 2007 MPC           M.P.E.C. 2007-P47

Read MPEC 2007-P46 Read MPEC 2007-P48


Our Web policy. Index to the CBAT/MPC/ICQ pages.


Valid HTML 4.01!